Year,Month,Day,Hour,Minute,Value (Times are PST for temperature in C)
2021,06,24,00,00,14.80
2021,06,24,00,01,14.80
2021,06,24,00,02,14.80
2021,06,24,00,03,14.80
2021,06,24,00,04,14.70
2021,06,24,00,05,14.70
2021,06,24,00,06,14.70
2021,06,24,00,07,14.70
2021,06,24,00,08,14.70
2021,06,24,00,09,14.70
2021,06,24,00,10,14.70
2021,06,24,00,11,14.70
2021,06,24,00,12,14.70
2021,06,24,00,13,14.70
2021,06,24,00,14,14.70
2021,06,24,00,15,14.70
2021,06,24,00,16,14.60
2021,06,24,00,17,14.60
2021,06,24,00,18,14.60
2021,06,24,00,19,14.60
2021,06,24,00,20,14.60
2021,06,24,00,21,14.60
2021,06,24,00,22,14.60
2021,06,24,00,23,14.60
2021,06,24,00,24,14.50
2021,06,24,00,25,14.50
2021,06,24,00,26,14.50
2021,06,24,00,27,14.50
2021,06,24,00,28,14.50
2021,06,24,00,29,14.50
2021,06,24,00,30,14.50
2021,06,24,00,31,14.50
2021,06,24,00,32,14.50
2021,06,24,00,33,14.50
2021,06,24,00,34,14.50
2021,06,24,00,35,14.50
2021,06,24,00,36,14.40
2021,06,24,00,37,14.40
2021,06,24,00,38,14.50
2021,06,24,00,39,14.40
2021,06,24,00,40,14.40
2021,06,24,00,41,14.40
2021,06,24,00,42,14.40
2021,06,24,00,43,14.40
2021,06,24,00,44,14.40
2021,06,24,00,45,14.40
2021,06,24,00,46,14.40
2021,06,24,00,47,14.40
2021,06,24,00,48,14.40
2021,06,24,00,49,14.30
2021,06,24,00,50,14.30
2021,06,24,00,51,14.30
2021,06,24,00,52,14.30
2021,06,24,00,53,14.30
2021,06,24,00,54,14.30
2021,06,24,00,55,14.30
2021,06,24,00,56,14.30
2021,06,24,00,57,14.30
2021,06,24,00,58,14.20
2021,06,24,00,59,14.20
2021,06,24,01,00,14.20
2021,06,24,01,01,14.20
2021,06,24,01,02,14.20
2021,06,24,01,03,14.20
2021,06,24,01,04,14.20
2021,06,24,01,05,14.20
2021,06,24,01,06,14.20
2021,06,24,01,07,14.20
2021,06,24,01,08,14.20
2021,06,24,01,09,14.20
2021,06,24,01,10,14.20
2021,06,24,01,11,14.10
2021,06,24,01,12,14.10
2021,06,24,01,13,14.10
2021,06,24,01,14,14.10
2021,06,24,01,15,14.10
2021,06,24,01,16,14.10
2021,06,24,01,17,14.10
2021,06,24,01,18,14.10
2021,06,24,01,19,14.10
2021,06,24,01,20,14.10
2021,06,24,01,21,14.10
2021,06,24,01,22,14.10
2021,06,24,01,23,14.10
2021,06,24,01,24,14.10
2021,06,24,01,25,14.10
2021,06,24,01,26,14.10
2021,06,24,01,27,14.00
2021,06,24,01,28,14.00
2021,06,24,01,29,13.90
2021,06,24,01,30,13.90
2021,06,24,01,31,13.90
2021,06,24,01,32,13.90
2021,06,24,01,33,13.90
2021,06,24,01,34,13.90
2021,06,24,01,35,13.90
2021,06,24,01,36,13.80
2021,06,24,01,37,13.80
2021,06,24,01,38,13.80
2021,06,24,01,39,13.80
2021,06,24,01,40,13.80
2021,06,24,01,41,13.80
2021,06,24,01,42,13.80
2021,06,24,01,43,13.80
2021,06,24,01,44,13.80
2021,06,24,01,45,13.80
2021,06,24,01,46,13.80
2021,06,24,01,47,13.80
2021,06,24,01,48,13.80
2021,06,24,01,49,13.80
2021,06,24,01,50,13.80
2021,06,24,01,51,13.80
2021,06,24,01,52,13.80
2021,06,24,01,53,13.70
2021,06,24,01,54,13.70
2021,06,24,01,55,13.70
2021,06,24,01,56,13.70
2021,06,24,01,57,13.70
2021,06,24,01,58,13.70
2021,06,24,01,59,13.70
2021,06,24,02,00,13.70
2021,06,24,02,01,13.70
2021,06,24,02,02,13.60
2021,06,24,02,03,13.60
2021,06,24,02,04,13.60
2021,06,24,02,05,13.60
2021,06,24,02,06,13.60
2021,06,24,02,07,13.60
2021,06,24,02,08,13.60
2021,06,24,02,09,13.60
2021,06,24,02,10,13.60
2021,06,24,02,11,13.60
2021,06,24,02,12,13.60
2021,06,24,02,13,13.60
2021,06,24,02,14,13.60
2021,06,24,02,15,13.60
2021,06,24,02,16,13.50
2021,06,24,02,17,13.50
2021,06,24,02,18,13.50
2021,06,24,02,19,13.50
2021,06,24,02,20,13.50
2021,06,24,02,21,13.50
2021,06,24,02,22,13.40
2021,06,24,02,23,13.40
2021,06,24,02,24,13.40
2021,06,24,02,25,13.40
2021,06,24,02,26,13.40
2021,06,24,02,27,13.40
2021,06,24,02,28,13.40
2021,06,24,02,29,13.30
2021,06,24,02,30,13.30
2021,06,24,02,31,13.30
2021,06,24,02,32,13.30
2021,06,24,02,33,13.20
2021,06,24,02,34,13.20
2021,06,24,02,35,13.20
2021,06,24,02,36,13.10
2021,06,24,02,37,13.10
2021,06,24,02,38,13.10
2021,06,24,02,39,13.10
2021,06,24,02,40,13.00
2021,06,24,02,41,13.00
2021,06,24,02,42,13.00
2021,06,24,02,43,12.90
2021,06,24,02,44,12.90
2021,06,24,02,45,12.90
2021,06,24,02,46,12.90
2021,06,24,02,47,12.80
2021,06,24,02,48,12.80
2021,06,24,02,49,12.80
2021,06,24,02,50,12.80
2021,06,24,02,51,12.80
2021,06,24,02,52,12.70
2021,06,24,02,53,12.70
2021,06,24,02,54,12.70
2021,06,24,02,55,12.70
2021,06,24,02,56,12.70
2021,06,24,02,57,12.70
2021,06,24,02,58,12.70
2021,06,24,02,59,12.60
2021,06,24,03,00,12.60
2021,06,24,03,01,12.60
2021,06,24,03,02,12.60
2021,06,24,03,03,12.50
2021,06,24,03,04,12.50
2021,06,24,03,05,12.50
2021,06,24,03,06,12.50
2021,06,24,03,07,12.50
2021,06,24,03,08,12.40
2021,06,24,03,09,12.40
2021,06,24,03,10,12.40
2021,06,24,03,11,12.40
2021,06,24,03,12,12.40
2021,06,24,03,13,12.40
2021,06,24,03,14,12.40
2021,06,24,03,15,12.40
2021,06,24,03,16,12.40
2021,06,24,03,17,12.40
2021,06,24,03,18,12.40
2021,06,24,03,19,12.40
2021,06,24,03,20,12.30
2021,06,24,03,21,12.30
2021,06,24,03,22,12.30
2021,06,24,03,23,12.30
2021,06,24,03,24,12.30
2021,06,24,03,25,12.30
2021,06,24,03,26,12.30
2021,06,24,03,27,12.30
2021,06,24,03,28,12.30
2021,06,24,03,29,12.30
2021,06,24,03,30,12.30
2021,06,24,03,31,12.30
2021,06,24,03,32,12.30
2021,06,24,03,33,12.30
2021,06,24,03,34,12.30
2021,06,24,03,35,12.30
2021,06,24,03,36,12.30
2021,06,24,03,37,12.30
2021,06,24,03,38,12.30
2021,06,24,03,39,12.30
2021,06,24,03,40,12.30
2021,06,24,03,41,12.30
2021,06,24,03,42,12.30
2021,06,24,03,43,12.30
2021,06,24,03,44,12.30
2021,06,24,03,45,12.30
2021,06,24,03,46,12.30
2021,06,24,03,47,12.30
2021,06,24,03,48,12.30
2021,06,24,03,49,12.30
2021,06,24,03,50,12.40
2021,06,24,03,51,12.40
2021,06,24,03,52,12.40
2021,06,24,03,53,12.40
2021,06,24,03,54,12.40
2021,06,24,03,55,12.40
2021,06,24,03,56,12.40
2021,06,24,03,57,12.40
2021,06,24,03,58,12.40
2021,06,24,03,59,12.40
2021,06,24,04,00,12.40
2021,06,24,04,01,12.40
2021,06,24,04,02,12.40
2021,06,24,04,03,12.40
2021,06,24,04,04,12.40
2021,06,24,04,05,12.40
2021,06,24,04,06,12.40
2021,06,24,04,07,12.40
2021,06,24,04,08,12.40
2021,06,24,04,09,12.40
2021,06,24,04,10,12.40
2021,06,24,04,11,12.40
2021,06,24,04,12,12.40
2021,06,24,04,13,12.30
2021,06,24,04,14,12.30
2021,06,24,04,15,12.30
2021,06,24,04,16,12.30
2021,06,24,04,17,12.30
2021,06,24,04,18,12.30
2021,06,24,04,19,12.30
2021,06,24,04,20,12.30
2021,06,24,04,21,12.30
2021,06,24,04,22,12.30
2021,06,24,04,23,12.30
2021,06,24,04,24,12.30
2021,06,24,04,25,12.30
2021,06,24,04,26,12.30
2021,06,24,04,27,12.30
2021,06,24,04,28,12.30
2021,06,24,04,29,12.30
2021,06,24,04,30,12.20
2021,06,24,04,31,12.20
2021,06,24,04,32,12.20
2021,06,24,04,33,12.20
2021,06,24,04,34,12.20
2021,06,24,04,35,12.20
2021,06,24,04,36,12.20
2021,06,24,04,37,12.20
2021,06,24,04,38,12.20
2021,06,24,04,39,12.20
2021,06,24,04,40,12.20
2021,06,24,04,41,12.20
2021,06,24,04,42,12.20
2021,06,24,04,43,12.20
2021,06,24,04,44,12.10
2021,06,24,04,45,12.10
2021,06,24,04,46,12.10
2021,06,24,04,47,12.10
2021,06,24,04,48,12.10
2021,06,24,04,49,12.10
2021,06,24,04,50,12.10
2021,06,24,04,51,12.10
2021,06,24,04,52,12.10
2021,06,24,04,53,12.10
2021,06,24,04,54,12.10
2021,06,24,04,55,12.00
2021,06,24,04,56,12.00
2021,06,24,04,57,12.00
2021,06,24,04,58,12.00
2021,06,24,04,59,11.90
2021,06,24,05,00,11.90
2021,06,24,05,01,11.90
2021,06,24,05,02,11.90
2021,06,24,05,03,11.90
2021,06,24,05,04,11.80
2021,06,24,05,05,11.80
2021,06,24,05,06,11.80
2021,06,24,05,07,11.80
2021,06,24,05,08,11.80
2021,06,24,05,09,11.80
2021,06,24,05,10,11.80
2021,06,24,05,11,11.70
2021,06,24,05,12,11.70
2021,06,24,05,13,11.70
2021,06,24,05,14,11.70
2021,06,24,05,15,11.70
2021,06,24,05,16,11.70
2021,06,24,05,17,11.70
2021,06,24,05,18,11.70
2021,06,24,05,19,11.70
2021,06,24,05,20,11.70
2021,06,24,05,21,11.70
2021,06,24,05,22,11.70
2021,06,24,05,23,11.70
2021,06,24,05,24,11.70
2021,06,24,05,25,11.70
2021,06,24,05,26,11.70
2021,06,24,05,27,11.70
2021,06,24,05,28,11.70
2021,06,24,05,29,11.70
2021,06,24,05,30,11.70
2021,06,24,05,31,11.70
2021,06,24,05,32,11.70
2021,06,24,05,33,11.70
2021,06,24,05,34,11.70
2021,06,24,05,35,11.70
2021,06,24,05,36,11.80
2021,06,24,05,37,11.80
2021,06,24,05,38,11.80
2021,06,24,05,39,11.80
2021,06,24,05,40,11.80
2021,06,24,05,41,11.80
2021,06,24,05,42,11.80
2021,06,24,05,43,11.80
2021,06,24,05,44,11.90
2021,06,24,05,45,11.90
2021,06,24,05,46,11.90
2021,06,24,05,47,11.90
2021,06,24,05,48,12.00
2021,06,24,05,49,12.00
2021,06,24,05,50,12.00
2021,06,24,05,51,12.10
2021,06,24,05,52,12.10
2021,06,24,05,53,12.10
2021,06,24,05,54,12.10
2021,06,24,05,55,12.10
2021,06,24,05,56,12.10
2021,06,24,05,57,12.20
2021,06,24,05,58,12.20
2021,06,24,05,59,12.20
2021,06,24,06,00,12.20
2021,06,24,06,01,12.20
2021,06,24,06,02,12.20
2021,06,24,06,03,12.20
2021,06,24,06,04,12.20
2021,06,24,06,05,12.20
2021,06,24,06,06,12.30
2021,06,24,06,07,12.30
2021,06,24,06,08,12.30
2021,06,24,06,09,12.30
2021,06,24,06,10,12.40
2021,06,24,06,11,12.40
2021,06,24,06,12,12.50
2021,06,24,06,13,12.50
2021,06,24,06,14,12.60
2021,06,24,06,15,12.60
2021,06,24,06,16,12.70
2021,06,24,06,17,12.70
2021,06,24,06,18,12.70
2021,06,24,06,19,12.80
2021,06,24,06,20,12.80
2021,06,24,06,21,12.90
2021,06,24,06,22,13.00
2021,06,24,06,23,13.10
2021,06,24,06,24,13.10
2021,06,24,06,25,13.20
2021,06,24,06,26,13.30
2021,06,24,06,27,13.30
2021,06,24,06,28,13.30
2021,06,24,06,29,13.40
2021,06,24,06,30,13.40
2021,06,24,06,31,13.40
2021,06,24,06,32,13.50
2021,06,24,06,33,13.50
2021,06,24,06,34,13.60
2021,06,24,06,35,13.60
2021,06,24,06,36,13.60
2021,06,24,06,37,13.70
2021,06,24,06,38,13.70
2021,06,24,06,39,13.80
2021,06,24,06,40,13.80
2021,06,24,06,41,13.80
2021,06,24,06,42,13.80
2021,06,24,06,43,13.80
2021,06,24,06,44,13.90
2021,06,24,06,45,13.90
2021,06,24,06,46,14.00
2021,06,24,06,47,14.00
2021,06,24,06,48,14.10
2021,06,24,06,49,14.20
2021,06,24,06,50,14.30
2021,06,24,06,51,14.30
2021,06,24,06,52,14.40
2021,06,24,06,53,14.40
2021,06,24,06,54,14.40
2021,06,24,06,55,14.40
2021,06,24,06,56,14.50
2021,06,24,06,57,14.50
2021,06,24,06,58,14.60
2021,06,24,06,59,14.70
2021,06,24,07,00,14.80
2021,06,24,07,01,14.90
2021,06,24,07,02,14.90
2021,06,24,07,03,14.90
2021,06,24,07,04,14.90
2021,06,24,07,05,14.90
2021,06,24,07,06,14.90
2021,06,24,07,07,14.90
2021,06,24,07,08,14.90
2021,06,24,07,09,14.80
2021,06,24,07,10,14.80
2021,06,24,07,11,14.80
2021,06,24,07,12,14.70
2021,06,24,07,13,14.70
2021,06,24,07,14,14.70
2021,06,24,07,15,14.70
2021,06,24,07,16,14.70
2021,06,24,07,17,14.60
2021,06,24,07,18,14.70
2021,06,24,07,19,14.60
2021,06,24,07,20,14.60
2021,06,24,07,21,14.60
2021,06,24,07,22,14.60
2021,06,24,07,23,14.60
2021,06,24,07,24,14.60
2021,06,24,07,25,14.60
2021,06,24,07,26,14.60
2021,06,24,07,27,14.60
2021,06,24,07,28,14.70
2021,06,24,07,29,14.70
2021,06,24,07,30,14.70
2021,06,24,07,31,14.70
2021,06,24,07,32,14.70
2021,06,24,07,33,14.70
2021,06,24,07,34,14.70
2021,06,24,07,35,14.70
2021,06,24,07,36,14.70
2021,06,24,07,37,14.70
2021,06,24,07,38,14.70
2021,06,24,07,39,14.70
2021,06,24,07,40,14.60
2021,06,24,07,41,14.60
2021,06,24,07,42,14.50
2021,06,24,07,43,14.50
2021,06,24,07,44,14.40
2021,06,24,07,45,14.50
2021,06,24,07,46,14.50
2021,06,24,07,47,14.50
2021,06,24,07,48,14.50
2021,06,24,07,49,14.50
2021,06,24,07,50,14.50
2021,06,24,07,51,14.50
2021,06,24,07,52,14.60
2021,06,24,07,53,14.60
2021,06,24,07,54,14.60
2021,06,24,07,55,14.70
2021,06,24,07,56,14.70
2021,06,24,07,57,14.80
2021,06,24,07,58,14.80
2021,06,24,07,59,14.80
2021,06,24,08,00,14.80
2021,06,24,08,01,14.80
2021,06,24,08,02,14.80
2021,06,24,08,03,14.80
2021,06,24,08,04,14.90
2021,06,24,08,05,14.90
2021,06,24,08,06,14.90
2021,06,24,08,07,15.00
2021,06,24,08,08,15.10
2021,06,24,08,09,15.10
2021,06,24,08,10,15.10
2021,06,24,08,11,15.10
2021,06,24,08,12,15.10
2021,06,24,08,13,15.10
2021,06,24,08,14,15.20
2021,06,24,08,15,15.30
2021,06,24,08,16,15.30
2021,06,24,08,17,15.30
2021,06,24,08,18,15.40
2021,06,24,08,19,15.40
2021,06,24,08,20,15.50
2021,06,24,08,21,15.60
2021,06,24,08,22,15.60
2021,06,24,08,23,15.60
2021,06,24,08,24,15.60
2021,06,24,08,25,15.60
2021,06,24,08,26,15.60
2021,06,24,08,27,15.60
2021,06,24,08,28,15.60
2021,06,24,08,29,15.50
2021,06,24,08,30,15.50
2021,06,24,08,31,15.50
2021,06,24,08,32,15.60
2021,06,24,08,33,15.60
2021,06,24,08,34,15.70
2021,06,24,08,35,15.80
2021,06,24,08,36,15.80
2021,06,24,08,37,15.90
2021,06,24,08,38,16.00
2021,06,24,08,39,16.00
2021,06,24,08,40,16.10
2021,06,24,08,41,16.10
2021,06,24,08,42,16.20
2021,06,24,08,43,16.20
2021,06,24,08,44,16.30
2021,06,24,08,45,16.30
2021,06,24,08,46,16.40
2021,06,24,08,47,16.50
2021,06,24,08,48,16.50
2021,06,24,08,49,16.60
2021,06,24,08,50,16.70
2021,06,24,08,51,16.80
2021,06,24,08,52,16.80
2021,06,24,08,53,16.80
2021,06,24,08,54,16.80
2021,06,24,08,55,16.90
2021,06,24,08,56,17.00
2021,06,24,08,57,17.10
2021,06,24,08,58,17.10
2021,06,24,08,59,17.10
2021,06,24,09,00,17.20
2021,06,24,09,01,17.20
2021,06,24,09,02,17.30
2021,06,24,09,03,17.40
2021,06,24,09,04,17.40
2021,06,24,09,05,17.50
2021,06,24,09,06,17.60
2021,06,24,09,07,17.70
2021,06,24,09,08,17.80
2021,06,24,09,09,17.90
2021,06,24,09,10,18.00
2021,06,24,09,11,18.00
2021,06,24,09,12,18.10
2021,06,24,09,13,18.10
2021,06,24,09,14,18.20
2021,06,24,09,15,18.30
2021,06,24,09,16,18.30
2021,06,24,09,17,18.40
2021,06,24,09,18,18.50
2021,06,24,09,19,18.50
2021,06,24,09,20,18.60
2021,06,24,09,21,18.70
2021,06,24,09,22,18.70
2021,06,24,09,23,18.80
2021,06,24,09,24,18.90
2021,06,24,09,25,19.00
2021,06,24,09,26,19.10
2021,06,24,09,27,19.20
2021,06,24,09,28,19.30
2021,06,24,09,29,19.30
2021,06,24,09,30,19.30
2021,06,24,09,31,19.40
2021,06,24,09,32,19.40
2021,06,24,09,33,19.50
2021,06,24,09,34,19.40
2021,06,24,09,35,19.50
2021,06,24,09,36,19.50
2021,06,24,09,37,19.40
2021,06,24,09,38,19.40
2021,06,24,09,39,19.50
2021,06,24,09,40,19.60
2021,06,24,09,41,19.60
2021,06,24,09,42,19.70
2021,06,24,09,43,19.70
2021,06,24,09,44,19.70
2021,06,24,09,45,19.70
2021,06,24,09,46,19.70
2021,06,24,09,47,19.70
2021,06,24,09,48,19.80
2021,06,24,09,49,19.80
2021,06,24,09,50,19.80
2021,06,24,09,51,19.80
2021,06,24,09,52,19.90
2021,06,24,09,53,19.90
2021,06,24,09,54,19.90
2021,06,24,09,55,19.90
2021,06,24,09,56,19.80
2021,06,24,09,57,19.80
2021,06,24,09,58,19.80
2021,06,24,09,59,19.80
2021,06,24,10,00,19.90
2021,06,24,10,01,19.90
2021,06,24,10,02,19.80
2021,06,24,10,03,19.90
2021,06,24,10,04,19.90
2021,06,24,10,05,19.90
2021,06,24,10,06,19.90
2021,06,24,10,07,19.90
2021,06,24,10,08,19.90
2021,06,24,10,09,20.00
2021,06,24,10,10,20.00
2021,06,24,10,11,19.90
2021,06,24,10,12,19.90
2021,06,24,10,13,19.90
2021,06,24,10,14,19.80
2021,06,24,10,15,19.90
2021,06,24,10,16,19.90
2021,06,24,10,17,20.00
2021,06,24,10,18,20.10
2021,06,24,10,19,20.10
2021,06,24,10,20,20.10
2021,06,24,10,21,20.10
2021,06,24,10,22,20.10
2021,06,24,10,23,20.10
2021,06,24,10,24,20.20
2021,06,24,10,25,20.20
2021,06,24,10,26,20.30
2021,06,24,10,27,20.30
2021,06,24,10,28,20.20
2021,06,24,10,29,20.10
2021,06,24,10,30,20.10
2021,06,24,10,31,20.00
2021,06,24,10,32,19.90
2021,06,24,10,33,19.90
2021,06,24,10,34,19.90
2021,06,24,10,35,20.00
2021,06,24,10,36,20.10
2021,06,24,10,37,20.10
2021,06,24,10,38,20.20
2021,06,24,10,39,20.30
2021,06,24,10,40,20.40
2021,06,24,10,41,20.40
2021,06,24,10,42,20.40
2021,06,24,10,43,20.50
2021,06,24,10,44,20.60
2021,06,24,10,45,20.60
2021,06,24,10,46,20.60
2021,06,24,10,47,20.70
2021,06,24,10,48,20.60
2021,06,24,10,49,20.60
2021,06,24,10,50,20.40
2021,06,24,10,51,20.40
2021,06,24,10,52,20.30
2021,06,24,10,53,20.20
2021,06,24,10,54,20.20
2021,06,24,10,55,20.20
2021,06,24,10,56,20.10
2021,06,24,10,57,20.00
2021,06,24,10,58,19.90
2021,06,24,10,59,20.00
2021,06,24,11,00,20.00
2021,06,24,11,01,20.00
2021,06,24,11,02,20.00
2021,06,24,11,03,20.00
2021,06,24,11,04,20.00
2021,06,24,11,05,20.00
2021,06,24,11,06,19.90
2021,06,24,11,07,20.00
2021,06,24,11,08,20.00
2021,06,24,11,09,20.10
2021,06,24,11,10,20.10
2021,06,24,11,11,20.20
2021,06,24,11,12,20.30
2021,06,24,11,13,20.40
2021,06,24,11,14,20.50
2021,06,24,11,15,20.60
2021,06,24,11,16,20.70
2021,06,24,11,17,20.60
2021,06,24,11,18,20.60
2021,06,24,11,19,20.70
2021,06,24,11,20,20.80
2021,06,24,11,21,20.80
2021,06,24,11,22,20.80
2021,06,24,11,23,20.80
2021,06,24,11,24,20.90
2021,06,24,11,25,21.00
2021,06,24,11,26,21.10
2021,06,24,11,27,21.20
2021,06,24,11,28,21.30
2021,06,24,11,29,21.30
2021,06,24,11,30,21.40
2021,06,24,11,31,21.40
2021,06,24,11,32,21.40
2021,06,24,11,33,21.40
2021,06,24,11,34,21.40
2021,06,24,11,35,21.20
2021,06,24,11,36,21.20
2021,06,24,11,37,21.20
2021,06,24,11,38,21.20
2021,06,24,11,39,21.00
2021,06,24,11,40,20.80
2021,06,24,11,41,20.60
2021,06,24,11,42,20.60
2021,06,24,11,43,20.60
2021,06,24,11,44,20.60
2021,06,24,11,45,20.50
2021,06,24,11,46,20.40
2021,06,24,11,47,20.30
2021,06,24,11,48,20.30
2021,06,24,11,49,20.40
2021,06,24,11,50,20.40
2021,06,24,11,51,20.40
2021,06,24,11,52,20.40
2021,06,24,11,53,20.40
2021,06,24,11,54,20.50
2021,06,24,11,55,20.50
2021,06,24,11,56,20.60
2021,06,24,11,57,20.80
2021,06,24,11,58,21.00
2021,06,24,11,59,21.10
2021,06,24,12,00,21.30
2021,06,24,12,01,21.40
2021,06,24,12,02,21.50
2021,06,24,12,03,21.50
2021,06,24,12,04,21.50
2021,06,24,12,05,21.60
2021,06,24,12,06,21.60
2021,06,24,12,07,21.70
2021,06,24,12,08,21.90
2021,06,24,12,09,21.90
2021,06,24,12,10,21.90
2021,06,24,12,11,21.80
2021,06,24,12,12,21.70
2021,06,24,12,13,21.50
2021,06,24,12,14,21.40
2021,06,24,12,15,21.40
2021,06,24,12,16,21.40
2021,06,24,12,17,21.40
2021,06,24,12,18,21.40
2021,06,24,12,19,21.30
2021,06,24,12,20,21.40
2021,06,24,12,21,21.30
2021,06,24,12,22,21.30
2021,06,24,12,23,21.30
2021,06,24,12,24,21.30
2021,06,24,12,25,21.30
2021,06,24,12,26,21.30
2021,06,24,12,27,21.30
2021,06,24,12,28,21.30
2021,06,24,12,29,21.30
2021,06,24,12,30,21.30
2021,06,24,12,31,21.30
2021,06,24,12,32,21.10
2021,06,24,12,33,21.10
2021,06,24,12,34,21.10
2021,06,24,12,35,21.10
2021,06,24,12,36,21.20
2021,06,24,12,37,21.20
2021,06,24,12,38,21.10
2021,06,24,12,39,21.10
2021,06,24,12,40,21.00
2021,06,24,12,41,21.00
2021,06,24,12,42,21.10
2021,06,24,12,43,21.20
2021,06,24,12,44,21.10
2021,06,24,12,45,21.00
2021,06,24,12,46,20.80
2021,06,24,12,47,20.80
2021,06,24,12,48,20.60
2021,06,24,12,49,20.50
2021,06,24,12,50,20.50
2021,06,24,12,51,20.40
2021,06,24,12,52,20.50
2021,06,24,12,53,20.50
2021,06,24,12,54,20.60
2021,06,24,12,55,20.60
2021,06,24,12,56,20.70
2021,06,24,12,57,20.80
2021,06,24,12,58,20.80
2021,06,24,12,59,20.80
2021,06,24,13,00,20.90
2021,06,24,13,01,21.10
2021,06,24,13,02,21.10
2021,06,24,13,03,21.10
2021,06,24,13,04,21.20
2021,06,24,13,05,21.30
2021,06,24,13,06,21.40
2021,06,24,13,07,21.50
2021,06,24,13,08,21.50
2021,06,24,13,09,21.50
2021,06,24,13,10,21.60
2021,06,24,13,11,21.70
2021,06,24,13,12,21.70
2021,06,24,13,13,21.70
2021,06,24,13,14,21.80
2021,06,24,13,15,21.80
2021,06,24,13,16,21.90
2021,06,24,13,17,22.00
2021,06,24,13,18,22.00
2021,06,24,13,19,22.10
2021,06,24,13,20,22.10
2021,06,24,13,21,22.10
2021,06,24,13,22,22.10
2021,06,24,13,23,22.10
2021,06,24,13,24,22.10
2021,06,24,13,25,22.00
2021,06,24,13,26,22.00
2021,06,24,13,27,22.00
2021,06,24,13,28,22.00
2021,06,24,13,29,22.00
2021,06,24,13,30,22.10
2021,06,24,13,31,22.10
2021,06,24,13,32,22.20
2021,06,24,13,33,22.20
2021,06,24,13,34,22.30
2021,06,24,13,35,22.30
2021,06,24,13,36,22.30
2021,06,24,13,37,22.30
2021,06,24,13,38,22.30
2021,06,24,13,39,22.40
2021,06,24,13,40,22.40
2021,06,24,13,41,22.30
2021,06,24,13,42,22.20
2021,06,24,13,43,22.20
2021,06,24,13,44,22.20
2021,06,24,13,45,22.30
2021,06,24,13,46,22.30
2021,06,24,13,47,22.30
2021,06,24,13,48,22.30
2021,06,24,13,49,22.50
2021,06,24,13,50,22.50
2021,06,24,13,51,22.40
2021,06,24,13,52,22.40
2021,06,24,13,53,22.40
2021,06,24,13,54,22.40
2021,06,24,13,55,22.50
2021,06,24,13,56,22.60
2021,06,24,13,57,22.70
2021,06,24,13,58,22.80
2021,06,24,13,59,22.80
2021,06,24,14,00,22.90
2021,06,24,14,01,22.90
2021,06,24,14,02,22.90
2021,06,24,14,03,22.90
2021,06,24,14,04,22.90
2021,06,24,14,05,22.90
2021,06,24,14,06,23.00
2021,06,24,14,07,23.00
2021,06,24,14,08,23.10
2021,06,24,14,09,23.20
2021,06,24,14,10,23.20
2021,06,24,14,11,23.10
2021,06,24,14,12,23.00
2021,06,24,14,13,23.00
2021,06,24,14,14,23.10
2021,06,24,14,15,23.10
2021,06,24,14,16,23.00
2021,06,24,14,17,22.90
2021,06,24,14,18,23.00
2021,06,24,14,19,23.00
2021,06,24,14,20,23.00
2021,06,24,14,21,22.90
2021,06,24,14,22,22.90
2021,06,24,14,23,22.90
2021,06,24,14,24,22.90
2021,06,24,14,25,22.80
2021,06,24,14,26,22.80
2021,06,24,14,27,22.80
2021,06,24,14,28,22.70
2021,06,24,14,29,22.70
2021,06,24,14,30,22.80
2021,06,24,14,31,22.70
2021,06,24,14,32,22.70
2021,06,24,14,33,22.70
2021,06,24,14,34,22.60
2021,06,24,14,35,22.60
2021,06,24,14,36,22.50
2021,06,24,14,37,22.60
2021,06,24,14,38,22.70
2021,06,24,14,39,22.90
2021,06,24,14,40,22.90
2021,06,24,14,41,22.80
2021,06,24,14,42,22.70
2021,06,24,14,43,22.60
2021,06,24,14,44,22.60
2021,06,24,14,45,22.70
2021,06,24,14,46,22.70
2021,06,24,14,47,22.70
2021,06,24,14,48,22.70
2021,06,24,14,49,22.70
2021,06,24,14,50,22.70
2021,06,24,14,51,22.70
2021,06,24,14,52,22.70
2021,06,24,14,53,22.70
2021,06,24,14,54,22.50
2021,06,24,14,55,22.50
2021,06,24,14,56,22.50
2021,06,24,14,57,22.50
2021,06,24,14,58,22.60
2021,06,24,14,59,22.60
2021,06,24,15,00,22.50
2021,06,24,15,01,22.50
2021,06,24,15,02,22.40
2021,06,24,15,03,22.40
2021,06,24,15,04,22.30
2021,06,24,15,05,22.20
2021,06,24,15,06,22.30
2021,06,24,15,07,22.30
2021,06,24,15,08,22.50
2021,06,24,15,09,22.60
2021,06,24,15,10,22.60
2021,06,24,15,11,22.70
2021,06,24,15,12,22.80
2021,06,24,15,13,22.80
2021,06,24,15,14,22.80
2021,06,24,15,15,22.90
2021,06,24,15,16,22.90
2021,06,24,15,17,22.90
2021,06,24,15,18,22.90
2021,06,24,15,19,22.90
2021,06,24,15,20,23.00
2021,06,24,15,21,23.10
2021,06,24,15,22,23.20
2021,06,24,15,23,23.20
2021,06,24,15,24,23.20
2021,06,24,15,25,23.40
2021,06,24,15,26,23.50
2021,06,24,15,27,23.60
2021,06,24,15,28,23.80
2021,06,24,15,29,23.90
2021,06,24,15,30,24.00
2021,06,24,15,31,24.10
2021,06,24,15,32,24.20
2021,06,24,15,33,24.20
2021,06,24,15,34,24.20
2021,06,24,15,35,24.20
2021,06,24,15,36,24.30
2021,06,24,15,37,24.30
2021,06,24,15,38,24.30
2021,06,24,15,39,24.20
2021,06,24,15,40,24.10
2021,06,24,15,41,24.10
2021,06,24,15,42,24.10
2021,06,24,15,43,24.10
2021,06,24,15,44,24.10
2021,06,24,15,45,24.20
2021,06,24,15,46,24.10
2021,06,24,15,47,24.10
2021,06,24,15,48,24.10
2021,06,24,15,49,24.00
2021,06,24,15,50,23.90
2021,06,24,15,51,23.90
2021,06,24,15,52,23.80
2021,06,24,15,53,23.80
2021,06,24,15,54,23.80
2021,06,24,15,55,23.80
2021,06,24,15,56,23.90
2021,06,24,15,57,23.90
2021,06,24,15,58,23.90
2021,06,24,15,59,23.90
2021,06,24,16,00,24.00
2021,06,24,16,01,24.00
2021,06,24,16,02,24.00
2021,06,24,16,03,23.90
2021,06,24,16,04,23.80
2021,06,24,16,05,23.80
2021,06,24,16,06,23.80
2021,06,24,16,07,23.80
2021,06,24,16,08,23.80
2021,06,24,16,09,23.80
2021,06,24,16,10,23.80
2021,06,24,16,11,23.80
2021,06,24,16,12,23.80
2021,06,24,16,13,23.80
2021,06,24,16,14,23.80
2021,06,24,16,15,23.80
2021,06,24,16,16,23.80
2021,06,24,16,17,23.80
2021,06,24,16,18,23.80
2021,06,24,16,19,23.80
2021,06,24,16,20,23.90
2021,06,24,16,21,24.00
2021,06,24,16,22,24.00
2021,06,24,16,23,24.00
2021,06,24,16,24,24.00
2021,06,24,16,25,24.10
2021,06,24,16,26,24.10
2021,06,24,16,27,24.10
2021,06,24,16,28,24.20
2021,06,24,16,29,24.20
2021,06,24,16,30,24.20
2021,06,24,16,31,24.20
2021,06,24,16,32,24.10
2021,06,24,16,33,24.00
2021,06,24,16,34,23.90
2021,06,24,16,35,23.90
2021,06,24,16,36,24.00
2021,06,24,16,37,24.00
2021,06,24,16,38,24.00
2021,06,24,16,39,24.00
2021,06,24,16,40,24.10
2021,06,24,16,41,24.10
2021,06,24,16,42,24.10
2021,06,24,16,43,24.00
2021,06,24,16,44,23.90
2021,06,24,16,45,23.90
2021,06,24,16,46,24.00
2021,06,24,16,47,24.00
2021,06,24,16,48,23.90
2021,06,24,16,49,23.90
2021,06,24,16,50,23.80
2021,06,24,16,51,23.80
2021,06,24,16,52,23.80
2021,06,24,16,53,23.70
2021,06,24,16,54,23.70
2021,06,24,16,55,23.60
2021,06,24,16,56,23.50
2021,06,24,16,57,23.40
2021,06,24,16,58,23.40
2021,06,24,16,59,23.30
2021,06,24,17,00,23.30
2021,06,24,17,01,23.30
2021,06,24,17,02,23.30
2021,06,24,17,03,23.30
2021,06,24,17,04,23.20
2021,06,24,17,05,23.20
2021,06,24,17,06,23.20
2021,06,24,17,07,23.20
2021,06,24,17,08,23.30
2021,06,24,17,09,23.30
2021,06,24,17,10,23.30
2021,06,24,17,11,23.30
2021,06,24,17,12,23.40
2021,06,24,17,13,23.40
2021,06,24,17,14,23.40
2021,06,24,17,15,23.50
2021,06,24,17,16,23.40
2021,06,24,17,17,23.50
2021,06,24,17,18,23.50
2021,06,24,17,19,23.50